map of NCE home
NCE - Airport
Location
City:  Nice, Provence-Alpes-Côte d'Azur, France
Name:Côte d'Azur Airport
ICAO:LFMN
IATA:NCE

Details
Type:Airport (Aerodrome, Airfield)
Use:Public/Civil, International (customs port of entry)
Latitude:43°39'55"N (43.665278)
Longitude:7°12'54"E (7.215000)
Elevation:13 ft (4 m)
Variation:2.14°E (WMM2015 magnetic declination)
0.11° annual change
Runways:2
Longest:9711 × 148 ft (2960 × 45 m), paved

Time
Time Zone:UTC+1 (DST+2)
Local Time:

Weather
METAR:LFMN 211000Z 33011KT CAVOK 08/M02 Q1014 NOSIG
TAF:LFMN 210800Z 2109/2215 33010KT CAVOK
BECMG 2111/2113 23008KT
BECMG 2116/2118 33010KT
BECMG 2211/2213 23008KT

Related Locations
Nearby:
Farthest:CHT: 12257 mi / 19725 km
Waitangi [Tuuta], CIT, NZ

Find:

   beyond  
but within

Other Information
Maps:
NOTAMs:
Links:
Sources:

  
  • flag of France
  • flag of Provence-Alpes-Côte d'Azur
  

Airport Diagram

Airport diagram for NCE

Larger airport diagram (OBSOLETE) from NGA

Sectional Chart

Flight Planning
at skyvector.com

Satellite Image

Google Maps Satellite view

 

Copyright © 2004-2019 Karl L. Swartz. All rights reserved.
The Great Circle Mapper name and logo are trademarks of the Great Circle Mapper.
All other trademarks mentioned herein belong to their respective owners.
Please see credits for attibutions and further copyright information.

  Follow gcmap on Facebook Follow gcmap on Twitter Follow gcmap on Google+ GCmap on LinkedIn

hCard Microformat

Geo Microformat